Total_Precipitation_Accumulation
0.23 0.22 0.25 0.22 0.21 0.22 0.25 0.29 0.31 0.27 0.24 0.21 0.15 0.13 0.12 0.12 0.12 0.14 0.18 0.21 0.27 0.34 0.40 0.44 0.44 0.45 0.45 0.44 0.42 0.41 0.42 0.47 0.52 0.54 0.58 0.68 0.80 0.92 1.15 1.32 1.37 0.98 0.85
0.08 0.13 0.22 0.21 0.20 0.22 0.23 0.23 0.28 0.27 0.25 0.22 0.20 0.17 0.15 0.15 0.15 0.17 0.19 0.24 0.29 0.35 0.35 0.33 0.32 0.34 0.36 0.35 0.35 0.35 0.40 0.53 0.70 0.81 0.84 0.83 0.92 1.00 1.13 1.14 1.34 0.96 0.81
0.06 0.08 0.16 0.21 0.19 0.19 0.20 0.21 0.25 0.25 0.24 0.23 0.22 0.21 0.18 0.19 0.20 0.22 0.24 0.27 0.31 0.33 0.30 0.27 0.30 0.31 0.30 0.26 0.28 0.32 0.41 0.61 0.95 1.18 1.29 1.00 0.71 0.95 1.07 0.98 0.88 0.75 0.74
0.05 0.05 0.08 0.16 0.18 0.17 0.17 0.20 0.23 0.25 0.23 0.23 0.22 0.23 0.23 0.25 0.28 0.31 0.31 0.30 0.31 0.30 0.27 0.26 0.24 0.26 0.25 0.23 0.27 0.37 0.50 0.67 0.97 1.41 1.54 0.92 0.51 0.66 0.75 0.71 0.67 0.57 0.61
0.08 0.06 0.09 0.14 0.16 0.17 0.17 0.20 0.22 0.23 0.22 0.23 0.23 0.25 0.27 0.29 0.31 0.32 0.33 0.34 0.31 0.29 0.27 0.26 0.24 0.20 0.22 0.23 0.29 0.39 0.56 0.74 1.08 1.36 1.10 0.92 0.82 0.65 0.60 0.65 0.60 0.51 0.49
0.13 0.11 0.14 0.17 0.17 0.18 0.17 0.18 0.19 0.21 0.21 0.22 0.22 0.25 0.28 0.29 0.32 0.36 0.35 0.35 0.32 0.29 0.24 0.26 0.26 0.22 0.22 0.24 0.32 0.43 0.61 0.89 1.11 0.81 0.72 0.80 0.78 0.67 0.63 0.77 0.68 0.56 0.49
0.23 0.20 0.22 0.25 0.24 0.21 0.21 0.20 0.21 0.20 0.21 0.23 0.25 0.27 0.29 0.30 0.34 0.37 0.34 0.32 0.30 0.28 0.22 0.24 0.30 0.29 0.32 0.35 0.42 0.52 0.70 0.99 0.87 0.60 0.71 0.94 0.85 0.69 0.71 0.89 0.86 0.69 0.54
0.38 0.29 0.28 0.34 0.33 0.28 0.27 0.27 0.26 0.24 0.25 0.26 0.25 0.26 0.28 0.30 0.35 0.34 0.32 0.34 0.32 0.29 0.27 0.26 0.28 0.34 0.41 0.41 0.48 0.57 0.71 0.82 0.55 0.55 0.68 0.81 0.71 0.73 0.81 0.98 1.01 0.86 0.69
0.46 0.43 0.37 0.34 0.32 0.32 0.35 0.38 0.36 0.30 0.31 0.31 0.27 0.26 0.27 0.31 0.34 0.33 0.34 0.38 0.36 0.33 0.34 0.33 0.28 0.29 0.33 0.38 0.45 0.52 0.67 0.80 0.67 0.68 0.69 0.69 0.56 0.63 0.82 0.98 0.94 0.89 0.80
0.62 0.58 0.56 0.50 0.44 0.37 0.37 0.42 0.44 0.40 0.38 0.35 0.33 0.32 0.37 0.42 0.43 0.41 0.37 0.43 0.41 0.39 0.43 0.43 0.38 0.35 0.41 0.48 0.57 0.66 0.76 0.66 0.75 0.72 0.83 0.83 0.65 0.76 1.00 1.11 0.99 0.90 0.86
0.91 0.79 0.70 0.60 0.53 0.48 0.39 0.38 0.44 0.46 0.46 0.43 0.47 0.48 0.58 0.74 0.77 0.78 0.70 0.74 0.71 0.68 0.70 0.70 0.67 0.62 0.59 0.54 0.75 0.99 0.81 0.67 0.87 0.91 0.93 0.91 0.84 1.03 1.29 1.31 1.23 1.09 1.00
1.17 0.88 0.81 0.63 0.57 0.48 0.40 0.51 0.62 0.63 0.67 0.69 0.81 0.85 1.06 1.27 1.27 1.01 1.13 1.24 1.19 1.21 1.12 1.10 1.29 1.10 0.85 0.77 1.28 1.63 0.89 0.73 0.81 0.81 0.83 0.87 1.15 1.43 1.63 1.50 1.35 1.28 1.17
1.20 1.19 1.12 0.89 0.78 0.73 0.78 0.71 0.79 0.92 1.07 1.05 1.04 1.17 1.45 1.36 1.21 1.11 1.19 1.50 1.66 1.73 1.64 1.67 1.80 1.49 1.43 1.61 1.80 1.67 1.17 1.09 1.05 1.02 1.01 1.24 1.63 1.90 1.97 1.73 1.56 1.47 1.37
1.51 1.75 1.81 1.48 1.39 1.26 1.10 1.01 0.95 0.96 1.14 1.28 1.47 1.52 1.66 1.74 1.66 1.51 1.55 1.75 1.89 2.03 2.38 2.30 2.20 2.08 2.03 1.92 1.87 1.64 1.45 1.44 1.34 1.47 1.70 1.61 1.76 2.03 2.18 2.00 1.78 1.67 1.61
2.14 2.35 2.52 2.08 1.96 1.83 1.79 1.67 1.43 1.45 1.53 1.62 1.81 1.95 2.01 2.16 2.18 2.12 2.03 1.98 1.84 1.94 2.28 2.52 2.40 2.45 2.39 2.22 1.97 1.80 1.70 1.63 1.55 1.63 1.79 2.00 2.01 2.00 2.13 2.25 2.09 1.88 1.77
2.66 2.77 2.90 2.76 2.75 2.58 2.34 2.34 2.31 1.97 1.93 1.92 1.96 1.90 2.09 2.30 2.57 2.67 2.55 2.40 2.09 2.01 2.09 2.39 2.50 2.66 2.58 2.43 1.86 1.75 1.75 1.77 1.78 1.73 1.84 2.34 2.38 1.99 1.93 2.09 2.23 2.21 2.05
3.57 3.44 3.46 3.44 3.67 3.48 3.05 2.75 2.49 2.31 2.25 2.30 2.29 2.18 2.29 2.49 2.70 2.70 2.51 2.18 1.97 1.99 2.11 2.07 2.12 2.41 2.21 2.08 1.95 2.02 2.02 1.95 1.81 1.77 1.84 2.20 2.23 1.88 1.70 1.72 1.94 2.10 2.20
4.40 4.29 4.08 3.70 4.01 3.95 3.60 3.32 3.02 2.76 2.77 2.69 2.43 2.32 2.24 2.37 2.31 2.37 2.04 1.71 1.81 1.98 2.05 2.09 2.03 2.13 2.15 2.23 2.24 2.19 2.13 1.98 1.62 1.50 1.42 1.46 1.63 1.39 1.49 1.69 1.70 1.72 1.99
4.82 5.00 4.96 4.85 4.50 4.18 3.98 3.80 3.62 3.42 3.09 2.75 2.56 2.42 2.15 1.92 1.79 1.90 1.69 1.61 1.67 1.84 1.87 1.75 1.96 2.14 2.11 2.15 2.08 2.07 1.75 1.58 1.38 1.17 1.10 1.03 1.13 1.20 1.20 1.33 1.44 1.49 1.85
4.78 5.32 5.48 5.47 5.05 4.50 4.01 3.60 3.52 3.33 3.06 2.80 2.55 2.30 1.95 1.75 1.60 1.77 1.64 1.53 1.58 1.71 1.76 1.88 2.03 2.10 1.91 1.86 1.75 1.62 1.35 1.06 0.98 0.92 0.77 0.80 0.88 0.85 0.91 1.07 1.31 1.20 1.62
4.37 5.04 5.14 5.32 4.79 4.12 3.54 3.08 2.97 2.78 2.49 2.43 2.32 2.13 1.98 1.78 1.69 1.80 1.63 1.57 1.47 1.53 1.54 1.64 1.76 1.78 1.53 1.70 2.02 1.66 1.16 0.87 0.80 0.73 0.66 0.67 0.68 0.73 0.92 1.19 1.35 1.38 1.49
3.76 4.46 4.51 4.16 3.89 3.41 3.00 2.79 2.62 2.54 2.25 2.09 1.96 1.93 1.75 1.61 1.57 1.55 1.55 1.40 1.37 1.44 1.42 1.49 1.61 1.58 1.41 1.62 1.95 2.03 1.58 1.22 0.94 0.66 0.63 0.62 0.69 0.82 0.90 1.01 1.33 1.52 1.51
3.43 3.53 3.15 2.94 2.96 2.87 2.68 2.55 2.43 2.38 2.19 1.91 1.70 1.67 1.58 1.41 1.36 1.31 1.27 1.28 1.34 1.22 1.27 1.37 1.52 1.65 1.51 1.42 1.67 1.96 1.73 1.40 1.13 0.85 0.75 0.85 0.97 1.06 1.10 1.26 1.37 1.51 1.58
2.62 2.54 2.47 2.41 2.38 2.55 2.55 2.31 2.10 1.78 1.64 1.55 1.45 1.47 1.50 1.34 1.27 1.21 1.17 1.26 1.29 1.24 1.35 1.17 1.25 1.49 1.61 1.42 1.41 1.46 1.47 1.56 1.56 1.21 0.89 0.82 0.95 1.04 1.07 1.09 1.21 1.44 1.57
1.97 2.02 1.98 2.20 2.28 2.27 2.24 2.18 2.14 1.87 1.67 1.58 1.66 1.82 1.72 1.46 1.23 1.10 1.11 1.20 1.26 1.25 1.29 1.27 1.34 1.30 1.36 1.32 1.31 1.31 1.39 1.52 1.47 1.41 1.18 0.97 0.95 0.85 0.90 1.03 1.22 1.38 1.43
1.31 1.41 1.51 1.74 1.94 1.98 1.93 1.93 1.96 1.92 1.82 1.59 1.51 1.57 1.51 1.37 1.20 1.07 1.09 1.22 1.23 1.20 1.21 1.22 1.23 1.19 1.24 1.27 1.27 1.30 1.39 1.38 1.31 1.43 1.32 1.12 1.05 0.88 0.96 1.06 1.22 1.33 1.35